Regional Weather Roundup
Issued by NWS

Home | Current Version | Previous Version | Graphics & Text | Print | Product List | Glossary On
Versions: 1 2 3 4 5 6 7 8 9 10 11 12 13 14 15 16 17 18 19 20 21 22 23 24 25 26 27 28 29 30 31 32 33 34 35 36 37 38 39 40 41 42 43 44 45 46 47 48 49 50
642
ASUS43 KMPX 180310
RWRMN
WEATHER ROUNDUP FOR MINNESOTA
NATIONAL WEATHER SERVICE TWIN CITIES/CHANHASSEN MN
900 PM CST SUN DEC 17 2017


NOTE: "FAIR" INDICATES FEW OR NO CLOUDS BELOW 12,000 FEET WITH NO
SIGNIFICANT WEATHER AND/OR OBSTRUCTIONS TO VISIBILITY. N/A MEANS
CURRENT SKY AND/OR WEATHER CONDITIONS ARE NOT AVAILABLE.

MNZ060>063-068>070-180400-
   Twin Cities Metro

CITY           SKY/WX    TMP DP  RH WIND       PRES   REMARKS
TWIN CITIES    CLOUDY    27  25  92 SE7       29.97F FOG     WCI  19
ST PAUL        CLOUDY    27  25  92 S7        29.99F FOG     WCI  19
CRYSTAL        CLOUDY    27  21  78 S6        29.96F HAZE    WCI  20
BLAINE         CLOUDY    27  27 100 CALM      29.96F FOG
LAKEVILLE        N/A     25  25 100 CALM      29.97F FOG
EDEN PRAIRIE   CLOUDY    27  23  85 S3        29.96F FOG
SOUTH ST PAUL  CLOUDY    27  26  95 S3        29.98S FOG
LAKE ELMO      CLOUDY    28  27  93 S6        29.98F FOG     WCI  22
$$
MNZ001>005-007-008-013>017-022>024-027-028-180400-
   Northwest Minnesota

CITY           SKY/WX    TMP DP  RH WIND       PRES   REMARKS
BEMIDJI        CLOUDY    24  23  98 S7        29.83F FOG     WCI  16
HALLOCK        MOCLDY    21  19  93 S17       29.74F FOG     WCI   7
ROSEAU         MOCLDY    19  16  86 S13       29.76F FOG     WCI   7
WARROAD        CLEAR     18  14  86 S6        29.76F WCI   9
THIEF RVR FALL LGT SNOW  25  25 100 S14       29.82S FOG     WCI  13
CROOKSTON      CLOUDY    28  28 100 S15       29.82F FOG     WCI  17
FOSSTON        FOG       21  19  93 S10       29.84R VSB 3/4 WCI  10
DETROIT LAKES  CLOUDY    28  27  93 S10       29.86F FOG     WCI  19
MOORHEAD       FOG       30  28  93 S13       29.87S VSB 1/2 WCI  20
PARK RAPIDS    CLOUDY    26  23  88 S9        29.85F FOG     WCI  17
MAHNOMEN       CLOUDY    25  24  96 S15       29.84S WCI  13
$$
MNZ006-009>011-018-025>026-180400-
   North Central Minnesota

CITY           SKY/WX    TMP DP  RH WIND       PRES   REMARKS
BAUDETTE       PTCLDY    20  19  96 S7        29.77F WCI  11
FLAG ISLAND    CLEAR     12  10  92 S8        29.75F WCI   1
INTL FALLS     PTCLDY    26  23  88 S5        29.81F FOG     WCI  20
WASKISH        CLEAR     25  23  93 S7        29.81F WCI  17
BIG FORK       CLOUDY    27  25  93 S9        29.84F WCI  17
LONGVILLE      CLOUDY    25  25 100 S8        29.88F FOG     WCI  16
GRAND RAPIDS   CLOUDY    25  24  96 S5        29.89F FOG     WCI  19
CRANE LAKE     CLOUDY    25  21  86 S5        29.87F WCI  19
ORR            CLOUDY    25  21  86 S8        29.82F WCI  16
COOK           CLOUDY    25  23  93 S5        29.86F WCI  19
WALKER         CLOUDY    26  25  94 SW9       29.85F WCI  17
$$
MNZ012-019>021-037-180400-
   Northeast Minnesota

CITY           SKY/WX    TMP DP  RH WIND       PRES   REMARKS
DULUTH         CLOUDY    24  22  91 SW6       29.89F WCI  17
ELY            CLOUDY    21  21 100 SW8       29.85F WCI  12
HIBBING        CLOUDY    23  21  92 SW8       29.87F WCI  14
EVELETH        CLOUDY    23  20  90 SW6       29.88F WCI  15
DULUTH HARBOR  CLOUDY    27  23  86 SW7       29.95S WCI  19
TWO HARBORS    CLOUDY    28  25  86 W6        29.89S WCI  22
SILVER BAY     CLOUDY    25  23  93 CALM      29.88F
GRAND MARAIS     N/A     28  23  81 NW3       29.91F
G MARAIS ARPRT CLOUDY    19  18  93 CALM      29.84F
$$
MNZ029>031-032-039>041-046>048-054>057-064-180400-
   West Central Minnesota

CITY           SKY/WX    TMP DP  RH WIND       PRES   REMARKS
FERGUS FALLS   CLEAR     25  25 100 SE8       29.90F FOG     WCI  16
WHEATON        CLOUDY    30  27  86 S9        29.90F WCI  22
MORRIS         CLOUDY    28  27  93 SE9       29.90S FOG     WCI  20
ALEXANDRIA     CLOUDY    26  24  92 S6        29.90F WCI  19
ELBOW LAKE     FAIR      22  22  98 E6        29.89F FOG     WCI  14
WADENA         FOG       25  25 100 S8        29.88F VSB 1   WCI  16
GLENWOOD       CLOUDY    27  25  93 S7        29.91S FOG     WCI  19
APPLETON       CLOUDY    30  27  86 S7        29.91F WCI  23
BENSON         CLOUDY    28  25  86 S7        29.93F FOG     WCI  21
ORTONVILLE     CLOUDY    28  27  93 SE6       29.90F WCI  22
MADISON        CLOUDY    34  28  80 S6        29.92S WCI  29
WILLMAR        MOCLDY    28  27  93 S7        29.94F FOG     WCI  21
$$
MNZ033>034-036-042>043-049>051-058-059-180400-
   Central Minnesota

CITY           SKY/WX    TMP DP  RH WIND       PRES   REMARKS
ST CLOUD       CLOUDY    24  21  88 S7        29.94F WCI  16
SAUK CENTRE    CLOUDY    24  23  93 S5        29.92S FOG     WCI  19
PAYNESVILLE    CLOUDY    27  24  89 S3        29.94S
AITKIN         CLOUDY    23  19  86 CALM      29.89F
PINE RIVER     CLOUDY    25  23  93 S3        29.92F FOG
BRAINERD       CLOUDY    26  21  81 S6        29.90F WCI  19
STAPLES        FOG       25  25 100 S7        29.89F VSB 1/2 WCI  17
LONG PRAIRIE   CLOUDY    23  23 100 SE5       29.91S FOG     WCI  17
LITTLE FALLS   CLOUDY    23  18  80 S3        29.93S
LITCHFIELD     CLOUDY    27  25  93 CALM      29.95F
BUFFALO        CLOUDY    26  21  83 S3        29.97S
MAPLE LAKE     CLOUDY    26  24  89 CALM      29.96F
HUTCHINSON     CLOUDY    27  24  88 CALM      29.96F
$$
MNZ037-044-045-052-053-180400-
   East Central Minnesota

CITY           SKY/WX    TMP DP  RH WIND       PRES   REMARKS
PRINCETON      CLOUDY    25  21  86 SE3       29.95S
MORA           CLOUDY    14  12  92 CALM      29.96F
CAMBRIDGE      CLOUDY    25  21  86 CALM      29.96S
RUSH CITY      PTCLDY    22  21  95 S3        29.96F FOG
MOOSE LAKE     CLOUDY    25  21  86 S6        29.91F WCI  18
HINCKLEY       FOG       18  14  86 CALM      29.95S VSB 3/4
CLOQUET        CLOUDY    25  19  80 S3        29.90F
MCGREGOR       CLOUDY    27  23  86 CALM      29.91F
$$
MNZ071>073-080-081-089-090-097-098-180400-
   Southwest Minnesota

CITY           SKY/WX    TMP DP  RH WIND       PRES   REMARKS
MONTEVIDEO     CLOUDY    28  27  93 S6        29.93S WCI  22
GRANITE FALLS  CLOUDY    31  27  86 SE8       29.95F WCI  23
CANBY          CLOUDY    36  32  84 SW6       29.92S
MARSHALL       CLOUDY    31  27  85 S7        29.93F WCI  24
REDWOOD FALLS  CLOUDY    29  25  85 SE6       29.95F WCI  23
OLIVIA         CLOUDY    30  27  86 S6        29.94F WCI  24
PIPESTONE      CLOUDY    30  27  86 SW6       29.92F WCI  24
WINDOM           N/A     27  16  63 CALM      29.94F HAZE
WORTHINGTON    CLOUDY    25  24  96 SW7       29.95S WCI  17
JACKSON        CLOUDY    23  21  93 CALM      29.95S FOG
TRACY          CLOUDY    32  28  86 SW9       29.93F WCI  24
SLAYTON        CLOUDY    30  27  89 SW7       29.94S WCI  23
$$
MNZ065>067-074>077-082>085-091>093-180400-
   South Central Minnesota

CITY           SKY/WX    TMP DP  RH WIND       PRES   REMARKS
MANKATO        CLOUDY    25  24  96 SE5       29.97F FOG     WCI  19
NEW ULM        CLOUDY    27  21  80 S5        29.96F WCI  21
ST JAMES       CLOUDY    23  21  93 CALM      29.97F
FAIRMONT       CLEAR     22  20  92 SW5       29.97F WCI  16
GLENCOE        CLOUDY    28  25  91 CALM      29.96S FOG
FARIBAULT      CLOUDY    27  27 100 CALM      29.97F FOG
OWATONNA       CLOUDY    28  27  93 CALM      29.97S FOG
WASECA         CLOUDY    28  27  93 CALM      29.98S FOG
ALBERT LEA     CLOUDY    28  27  93 SW3       29.96F FOG
$$
MNZ078>079-086>088-094>096-180400-
   Southeast Minnesota

CITY           SKY/WX    TMP DP  RH WIND       PRES   REMARKS
ROCHESTER      FOG       30  29  96 S7        29.95F VSB 1   WCI  23
RED WING       CLOUDY    28  25  86 CALM      29.98F FOG
STANTON        FOG       27  26  94 CALM      29.97F VSB 1
DODGE CENTER   FOG       28  27  93 CALM      29.95F VSB 1
WINONA         CLOUDY    30  28  93 CALM      29.99F
AUSTIN         CLOUDY    28  27  93 SW5       29.96S FOG     WCI  23
PRESTON        CLOUDY    28  27  96 S5        29.96F FOG     WCI  23
$$
ABBREVIATIONS USED IN REMARKS
   TC - TEMPERATURES IN CELSIUS
  WCI - WIND CHILL INDEX
   HX - HEAT INDEX
  VSB - VISIBILITY
$$




USA.gov is the U.S. government's official web portal to all federal, state and local government web resources and services.